Location: Sperry Observatory
(40.6664°N, 74.3236°W)
Time: 11:54:53
(UTC-04:00)

UOSAT-12 - Visible Passes

Search period start: 28 June 2017 00:00
Search period end: 08 July 2017 00:00
Orbit: 602 x 652 km, 64.6° (Epoch: 27 June)

Date Brightness Start Highest point End Pass type
(mag) Time Alt. Az. Time Alt. Az. Time Alt. Az.
28 Jun 7.5 22:18:30 10° NNW 22:23:07 54° NE 22:25:21 28° ESE visible
28 Jun 9.1 23:59:44 10° WNW 00:02:39 17° WSW 00:02:39 17° WSW visible
29 Jun 7.2 22:38:16 10° NW 22:42:57 71° WSW 22:44:38 38° SSE visible
30 Jun 8.3 21:18:20 10° NNW 21:22:32 32° NE 21:26:40 10° ESE visible
30 Jun 8.4 22:58:27 10° NW 23:02:35 32° WSW 23:03:58 27° SW visible
01 Jul 7.3 21:37:51 10° NNW 21:42:31 64° NE 21:46:03 17° SE visible
01 Jul 9.3 23:19:32 10° WNW 23:22:05 15° WSW 23:23:21 13° SW visible
02 Jul 7.5 21:57:41 10° NW 22:02:18 60° WSW 22:05:29 19° SSE visible
03 Jul 8.8 22:17:59 10° NW 22:21:55 27° WSW 22:24:59 14° SSW visible
04 Jul 7.2 20:57:13 10° NNW 21:01:54 75° NE 21:06:34 10° SE visible
04 Jul 9.6 22:39:32 10° W 22:41:22 12° WSW 22:43:12 10° SW visible
05 Jul 7.9 21:17:07 10° NW 21:21:40 50° WSW 21:26:09 10° SSE visible
06 Jul 9.1 21:37:34 10° WNW 21:41:14 23° WSW 21:44:52 10° SSW visible
